EW7794 Weather Reports


Display with metric or nautical units.
time (UTC)temp
F
wind
direction
speed
MPH
gust
MPH
rain 1hr
in
rain 24hr
in
rain mn
in
humidity
%
barometer
mb
20260906211519 70 0.0 4.0 0.00 0.00 0.00 67 1018.5
20260906210519 70 0.0 0.0 0.00 0.00 0.00 68 1018.4
20260906205519 70 0.0 0.0 0.00 0.00 0.00 70 1018.3
20260906204519 70 0.0 0.0 0.00 0.00 0.00 70 1018.3
20260906203539 70 0.0 5.0 0.00 0.00 0.00 67 1018.4
20260906202539 70 0.0 6.0 0.00 0.00 0.00 68 1018.3
20260906201519 70 23 2.0 5.0 0.00 0.00 0.00 70 1018.2
20260906200518 70 0.0 3.0 0.00 0.00 0.00 68 1018.2
20260906195519 71 0 1.0 5.0 0.00 0.00 0.00 68 1018.2
20260906194519 70 0.0 0.0 0.00 0.00 0.00 71 1018.1
20260906193519 70 68 1.0 4.0 0.00 0.00 0.00 69 1018.1
20260906192519 71 0.0 3.0 0.00 0.00 0.00 70 1018.2
20260906191518 71 0.0 6.0 0.00 0.00 0.00 70 1018.1
20260906190519 71 0.0 5.0 0.00 0.00 0.00 69 1018.1
20260906185519 71 0.0 9.0 0.00 0.00 0.00 71 1018.1
20260906184519 70 90 1.0 4.0 0.00 0.00 0.00 72 1017.9
20260906183518 70 90 1.0 4.0 0.00 0.00 0.00 71 1018.0
20260906182519 70 0.0 0.0 0.00 0.00 0.00 70 1018.2
20260906181519 71 68 2.0 6.0 0.00 0.00 0.00 72 1018.0
20260906180518 71 68 1.0 4.0 0.00 0.00 0.00 70 1018.1
20260906175538 71 45 1.0 5.0 0.00 0.00 0.00 72 1018.1
20260906174519 70 0 1.0 5.0 0.00 0.00 0.00 74 1018.1
20260906173518 70 0.0 3.0 0.00 0.00 0.00 73 1018.1
20260906172518 70 90 1.0 4.0 0.00 0.00 0.00 76 1018.1
20260906171519 70 0 1.0 4.0 0.00 0.00 0.00 74 1018.1
20260906170518 70 113 1.0 6.0 0.00 0.00 0.00 76 1018.2
20260906165541 70 23 2.0 7.0 0.00 0.00 0.00 76 1018.3
20260906164519 70 0 1.0 4.0 0.00 0.00 0.00 76 1018.2
20260906163518 69 0 2.0 5.0 0.00 0.00 0.00 76 1018.2
20260906162518 70 23 1.0 4.0 0.00 0.00 0.00 73 1018.1
20260906161519 70 0 2.0 5.0 0.00 0.00 0.00 73 1018.2
20260906160519 70 45 1.0 6.0 0.00 0.00 0.00 72 1018.2
20260906155538 69 68 1.0 3.0 0.00 0.00 0.00 77 1018.2
20260906154540 69 90 1.0 3.0 0.00 0.00 0.00 77 1018.1
20260906153520 69 68 1.0 3.0 0.00 0.00 0.00 77 1018.1
20260906152520 69 0 1.0 5.0 0.00 0.00 0.00 78 1018.1
20260906151538 69 68 1.0 3.0 0.00 0.00 0.00 79 1018.0
20260906150518 69 45 1.0 4.0 0.00 0.00 0.00 78 1018.0
20260906145519 69 68 1.0 7.0 0.00 0.00 0.00 81 1018.0
20260906144518 68 90 1.0 4.0 0.00 0.00 0.00 82 1017.9
20260906143518 68 45 2.0 4.0 0.00 0.00 0.00 82 1017.8
20260906142518 67 68 2.0 4.0 0.00 0.00 0.00 84 1017.7
20260906141558 66 68 1.0 3.0 0.00 0.00 0.00 85 1017.7
20260906140518 66 45 2.0 7.0 0.00 0.00 0.00 85 1017.7
20260906135540 67 45 1.0 4.0 0.00 0.00 0.00 85 1017.6
20260906134538 67 0 1.0 2.0 0.00 0.00 0.00 86 1017.5
20260906133518 66 0 1.0 3.0 0.00 0.00 0.00 85 1017.5
20260906132518 67 0 1.0 3.0 0.00 0.00 0.00 85 1017.3
20260906131518 66 23 2.0 4.0 0.00 0.00 0.00 88 1017.4
20260906130518 66 338 1.0 3.0 0.00 0.00 0.00 88 1017.4
20260906125540 65 338 1.0 3.0 0.00 0.00 0.00 90 1017.4
20260906124520 65 338 2.0 5.0 0.00 0.00 0.00 91 1017.3
20260906123520 64 23 2.0 4.0 0.00 0.00 0.00 92 1017.2
20260906122539 63 0 1.0 3.0 0.00 0.00 0.00 93 1017.2
20260906121520 63 0 2.0 4.0 0.00 0.00 0.00 93 1017.1
20260906120520 62 315 1.0 3.0 0.00 0.00 0.00 93 1017.0
20260906115518 62 315 1.0 2.0 0.00 0.00 0.00 93 1017.0
20260906114518 61 315 1.0 3.0 0.00 0.00 0.00 93 1016.8
20260906113520 61 315 2.0 3.0 0.00 0.00 0.00 93 1016.7
20260906112520 60 293 2.0 4.0 0.00 0.00 0.00 93 1016.6
20260906111520 60 315 2.0 3.0 0.00 0.00 0.00 93 1016.5
20260906110520 60 315 2.0 2.0 0.00 0.00 0.00 93 1016.4
20260906105518 60 315 2.0 2.0 0.00 0.00 0.00 93 1016.4
20260906104520 60 315 2.0 3.0 0.00 0.00 0.00 93 1016.2
20260906103540 60 315 2.0 3.0 0.00 0.00 0.00 93 1016.3
20260906102520 60 315 2.0 3.0 0.00 0.00 0.00 93 1016.1
20260906101520 60 315 2.0 3.0 0.00 0.00 0.00 93 1016.2
20260906100520 60 315 2.0 2.0 0.00 0.00 0.00 93 1016.1
20260906095520 60 315 2.0 2.0 0.00 0.00 0.00 93 1016.0
20260906094520 60 315 2.0 3.0 0.00 0.00 0.00 92 1015.9
20260906093520 60 315 2.0 4.0 0.00 0.00 0.00 92 1015.7
20260906092520 60 315 2.0 4.0 0.00 0.00 0.00 92 1015.7
20260906091519 60 293 2.0 4.0 0.00 0.00 0.00 92 1015.7
20260906090519 60 315 3.0 4.0 0.00 0.00 0.00 92 1015.6
20260906085540 60 315 2.0 3.0 0.00 0.00 0.00 92 1015.5
20260906084520 61 315 3.0 5.0 0.00 0.00 0.00 91 1015.3
20260906083520 61 315 2.0 3.0 0.00 0.00 0.00 91 1015.1
20260906082519 61 315 2.0 3.0 0.00 0.00 0.00 91 1015.0
20260906081520 62 315 2.0 3.0 0.00 0.00 0.00 91 1015.1
20260906080519 62 315 2.0 3.0 0.00 0.00 0.00 91 1015.1
20260906075539 62 315 1.0 3.0 0.00 0.00 0.00 91 1015.1
20260906074519 62 315 1.0 2.0 0.00 0.00 0.00 92 1015.2
20260906073520 62 0.0 2.0 0.00 0.00 0.00 92 1015.1
20260906072519 62 315 1.0 2.0 0.00 0.00 0.00 92 1015.1
20260906071520 62 315 3.0 4.0 0.00 0.00 0.00 92 1014.9
20260906070519 61 315 2.0 3.0 0.00 0.00 0.00 93 1014.9
20260906065519 61 315 2.0 3.0 0.00 0.00 0.00 93 1015.0
20260906064519 61 315 1.0 2.0 0.00 0.00 0.00 93 1015.0
20260906063519 61 315 2.0 3.0 0.00 0.00 0.00 93 1015.0
20260906062519 61 315 2.0 4.0 0.00 0.00 0.00 93 1015.1
20260906061539 61 315 2.0 2.0 0.00 0.00 0.00 93 1015.1
20260906060519 61 315 1.0 2.0 0.00 0.00 0.00 93 1015.1
20260906055519 61 315 1.0 2.0 0.00 0.00 0.00 93 1015.2
20260906054519 61 315 1.0 2.0 0.00 0.00 0.00 93 1015.2
20260906053519 61 315 1.0 2.0 0.00 0.00 0.00 93 1015.2
20260906052519 60 315 1.0 2.0 0.00 0.00 0.00 93 1015.1
20260906051519 60 315 1.0 3.0 0.00 0.00 0.00 93 1015.2
20260906050519 60 315 2.0 3.0 0.00 0.00 0.00 93 1015.1
20260906045539 60 315 1.0 2.0 0.00 0.00 0.00 93 1015.0
20260906044559 60 0.0 0.0 0.00 0.00 0.00 92 1015.0
20260906043519 60 0.0 0.0 0.00 0.00 0.00 92 1014.9
20260906042519 60 0.0 0.0 0.00 0.00 0.00 92 1015.0
20260906041519 60 0.0 2.0 0.00 0.00 0.00 92 1014.9
20260906040519 60 315 1.0 2.0 0.00 0.00 0.00 92 1014.8
20260906040019 60 315 1.0 2.0 0.00 0.00 0.00 92 1014.8
20260906035018 61 315 1.0 2.0 0.00 0.00 0.00 92 1014.8
20260906034018 61 0 2.0 3.0 0.00 0.00 0.00 92 1014.8
20260906033018 61 0 2.0 3.0 0.00 0.00 0.00 91 1014.7
20260906032019 61 0 1.0 3.0 0.00 0.00 0.00 91 1014.7
20260906031019 61 0 2.0 3.0 0.00 0.00 0.00 91 1014.6
20260906030019 62 0 2.0 2.0 0.00 0.00 0.00 91 1014.6
20260906025019 62 0 2.0 3.0 0.00 0.00 0.00 91 1014.5
20260906024058 62 0 1.0 2.0 0.00 0.00 0.00 91 1014.5
20260906023019 62 0 1.0 1.0 0.00 0.00 0.00 90 1014.4
20260906022019 62 0 1.0 1.0 0.00 0.00 0.00 90 1014.3
20260906021018 62 0.0 0.0 0.00 0.00 0.00 90 1014.3
20260906020018 62 0 1.0 2.0 0.00 0.00 0.00 90 1014.2
20260906015018 62 0 1.0 2.0 0.00 0.00 0.00 89 1014.3
20260906014038 62 0 2.0 3.0 0.00 0.00 0.00 90 1014.2
20260906013018 62 0 2.0 3.0 0.00 0.00 0.00 90 1014.1
20260906012018 62 0 1.0 2.0 0.00 0.00 0.00 89 1014.1
20260906011018 62 0 1.0 2.0 0.00 0.00 0.00 89 1014.0
20260906010018 62 0 1.0 2.0 0.00 0.00 0.00 88 1013.9
20260906005019 63 0 1.0 2.0 0.00 0.00 0.00 87 1013.9
20260906004058 63 0.0 0.0 0.00 0.00 0.00 86 1013.8
20260906003018 64 0.0 0.0 0.00 0.00 0.00 85 1013.8
20260906002038 64 0.0 0.0 0.00 0.00 0.00 84 1013.8
20260906001018 65 0.0 0.0 0.00 0.00 0.00 83 1013.8
20260906000019 66 0.0 0.0 0.00 0.00 0.00 82 1013.8
20260905235018 67 0.0 0.0 0.00 0.00 0.00 80 1013.8
20260905234018 68 0.0 0.0 0.00 0.00 0.00 77 1013.9
20260905233038 70 0.0 0.0 0.00 0.00 0.00 75 1014.0
20260905232038 71 0.0 0.0 0.00 0.00 0.00 72 1013.9
20260905231018 71 0.0 0.0 0.00 0.00 0.00 72 1013.9
20260905230020 72 0.0 1.0 0.00 0.00 0.00 71 1013.8
20260905225018 72 0.0 0.0 0.00 0.00 0.00 69 1013.7
20260905224058 72 0.0 2.0 0.00 0.00 0.00 68 1013.8
20260905223018 72 0.0 3.0 0.00 0.00 0.00 67 1013.9
20260905222020 73 0 2.0 4.0 0.00 0.00 0.00 66 1013.9
20260905221020 73 23 1.0 4.0 0.00 0.00 0.00 65 1013.7
20260905220040 73 0.0 3.0 0.00 0.00 0.00 65 1013.7
20260905215020 73 338 1.0 3.0 0.00 0.00 0.00 65 1013.6
20260905214021 73 0 1.0 3.0 0.00 0.00 0.00 67 1013.4
20260905213020 73 0 1.0 4.0 0.00 0.00 0.00 65 1013.4